Private Wetterstation Sandau
Wetterdaten: Mittwoch, 08.08.2012
Datum Zeit Temp. A. Feuchte A. Luftdruck Regen Wind Richtung Richtung Taupunkt Windchill
08.08.2012 00:01 15,4 C 80 % 1020,0 hPa 0,0 l/m 12,6 km/h (3 Bft) W-SW 247 12,0 C 15,4 C
08.08.2012 00:06 15,4 C 80 % 1020,0 hPa 0,0 l/m 12,6 km/h (3 Bft) W 270 12,0 C 15,4 C
08.08.2012 00:11 15,3 C 80 % 1020,0 hPa 0,0 l/m 8,3 km/h (2 Bft) W-SW 247 11,9 C 15,3 C
08.08.2012 00:16 15,3 C 81 % 1020,1 hPa 0,0 l/m 5,0 km/h (1 Bft) SW 225 12,1 C 15,3 C
08.08.2012 00:21 15,2 C 81 % 1020,2 hPa 0,0 l/m 17,3 km/h (3 Bft) W 270 12,0 C 15,2 C
08.08.2012 00:26 15,1 C 81 % 1020,1 hPa 0,0 l/m 10,4 km/h (2 Bft) SW 225 11,9 C 15,1 C
08.08.2012 00:31 14,9 C 81 % 1020,1 hPa 0,0 l/m 19,4 km/h (3 Bft) W-SW 247 11,7 C 14,9 C
08.08.2012 00:36 14,9 C 81 % 1020,1 hPa 0,0 l/m 6,5 km/h (2 Bft) W-SW 247 11,7 C 14,9 C
08.08.2012 00:41 14,9 C 81 % 1020,1 hPa 0,0 l/m 9,0 km/h (2 Bft) W 270 11,7 C 14,9 C
08.08.2012 00:46 14,9 C 81 % 1020,2 hPa 0,0 l/m 16,9 km/h (3 Bft) W-SW 247 11,7 C 14,9 C
08.08.2012 00:51 14,8 C 82 % 1020,2 hPa 0,0 l/m 10,8 km/h (2 Bft) SW 225 11,8 C 14,8 C
08.08.2012 00:56 14,8 C 82 % 1020,3 hPa 0,0 l/m 16,2 km/h (3 Bft) W 270 11,8 C 14,8 C
08.08.2012 01:01 14,7 C 82 % 1020,3 hPa 0,0 l/m 13,0 km/h (3 Bft) W-SW 247 11,7 C 14,7 C
08.08.2012 01:06 14,6 C 82 % 1020,3 hPa 0,0 l/m 6,5 km/h (2 Bft) W 270 11,6 C 14,6 C
08.08.2012 01:11 14,6 C 82 % 1020,3 hPa 0,0 l/m 10,1 km/h (2 Bft) W-SW 247 11,6 C 14,6 C
08.08.2012 01:16 14,5 C 82 % 1020,3 hPa 0,0 l/m 10,1 km/h (2 Bft) W-SW 247 11,5 C 14,5 C
08.08.2012 01:21 14,5 C 82 % 1020,3 hPa 0,0 l/m 10,8 km/h (2 Bft) W-SW 247 11,5 C 14,5 C
08.08.2012 01:26 14,4 C 82 % 1020,3 hPa 0,0 l/m 14,0 km/h (3 Bft) W-SW 247 11,4 C 14,4 C
08.08.2012 01:31 14,4 C 82 % 1020,3 hPa 0,0 l/m 8,6 km/h (2 Bft) W-SW 247 11,4 C 14,4 C
08.08.2012 01:36 14,4 C 82 % 1020,4 hPa 0,0 l/m 8,3 km/h (2 Bft) W-SW 247 11,4 C 14,4 C
08.08.2012 01:41 14,4 C 82 % 1020,4 hPa 0,0 l/m 6,1 km/h (2 Bft) SW 225 11,4 C 14,4 C
08.08.2012 01:46 14,4 C 82 % 1020,4 hPa 0,0 l/m 16,2 km/h (3 Bft) W 270 11,4 C 14,4 C
08.08.2012 01:51 14,3 C 82 % 1020,5 hPa 0,0 l/m 11,9 km/h (2 Bft) W 270 11,3 C 14,3 C
08.08.2012 01:56 14,3 C 82 % 1020,3 hPa 0,0 l/m 11,2 km/h (2 Bft) W-SW 247 11,3 C 14,3 C
08.08.2012 02:01 14,3 C 82 % 1020,3 hPa 0,0 l/m 10,4 km/h (2 Bft) W-SW 247 11,3 C 14,3 C
08.08.2012 02:06 14,3 C 83 % 1020,2 hPa 0,0 l/m 11,5 km/h (2 Bft) W-SW 247 11,5 C 14,3 C
08.08.2012 02:11 14,3 C 83 % 1020,2 hPa 0,0 l/m 9,4 km/h (2 Bft) W-SW 247 11,5 C 14,3 C
08.08.2012 02:16 14,4 C 83 % 1020,3 hPa 0,0 l/m 6,1 km/h (2 Bft) W-SW 247 11,5 C 14,4 C
08.08.2012 02:21 14,4 C 83 % 1020,3 hPa 0,0 l/m 15,8 km/h (3 Bft) W 270 11,5 C 14,4 C
08.08.2012 02:26 14,4 C 83 % 1020,3 hPa 0,0 l/m 9,0 km/h (2 Bft) SW 225 11,5 C 14,4 C
08.08.2012 02:31 14,4 C 83 % 1020,3 hPa 0,0 l/m 6,8 km/h (2 Bft) W-SW 247 11,5 C 14,4 C
08.08.2012 02:36 14,4 C 83 % 1020,3 hPa 0,0 l/m 9,7 km/h (2 Bft) W-SW 247 11,5 C 14,4 C
08.08.2012 02:41 14,4 C 83 % 1020,4 hPa 0,0 l/m 16,2 km/h (3 Bft) W 270 11,5 C 14,4 C
08.08.2012 02:46 14,4 C 83 % 1020,3 hPa 0,0 l/m 8,6 km/h (2 Bft) SW 225 11,5 C 14,4 C
08.08.2012 02:51 14,5 C 83 % 1020,3 hPa 0,0 l/m 14,4 km/h (3 Bft) W-SW 247 11,6 C 14,5 C
08.08.2012 02:56 14,4 C 83 % 1020,4 hPa 0,0 l/m 9,7 km/h (2 Bft) SW 225 11,5 C 14,4 C
08.08.2012 03:01 14,4 C 83 % 1020,4 hPa 0,0 l/m 11,2 km/h (2 Bft) W 270 11,5 C 14,4 C
08.08.2012 03:06 14,4 C 83 % 1020,4 hPa 0,0 l/m 16,9 km/h (3 Bft) W-SW 247 11,5 C 14,4 C
08.08.2012 03:11 14,3 C 83 % 1020,4 hPa 0,0 l/m 7,2 km/h (2 Bft) W 270 11,5 C 14,3 C
08.08.2012 03:16 14,3 C 83 % 1020,4 hPa 0,0 l/m 9,0 km/h (2 Bft) W-SW 247 11,5 C 14,3 C
08.08.2012 03:21 14,3 C 83 % 1020,4 hPa 0,0 l/m 16,9 km/h (3 Bft) W 270 11,5 C 14,3 C
08.08.2012 03:26 14,2 C 83 % 1020,4 hPa 0,0 l/m 13,0 km/h (3 Bft) SW 225 11,4 C 14,2 C
08.08.2012 03:31 14,2 C 83 % 1020,4 hPa 0,0 l/m 13,3 km/h (3 Bft) W 270 11,4 C 14,2 C
08.08.2012 03:36 14,2 C 83 % 1020,4 hPa 0,0 l/m 7,2 km/h (2 Bft) W-SW 247 11,4 C 14,2 C
08.08.2012 03:41 14,3 C 83 % 1020,5 hPa 0,0 l/m 10,8 km/h (2 Bft) W-SW 247 11,5 C 14,3 C
08.08.2012 03:46 14,3 C 83 % 1020,5 hPa 0,0 l/m 5,0 km/h (1 Bft) W 270 11,5 C 14,3 C
08.08.2012 03:51 14,3 C 83 % 1020,5 hPa 0,0 l/m 11,9 km/h (2 Bft) W-SW 247 11,5 C 14,3 C
08.08.2012 03:56 14,4 C 83 % 1020,5 hPa 0,0 l/m 11,2 km/h (2 Bft) W 270 11,5 C 14,4 C
08.08.2012 04:01 14,4 C 83 % 1020,5 hPa 0,0 l/m 9,7 km/h (2 Bft) W 270 11,5 C 14,4 C
08.08.2012 04:06 14,4 C 83 % 1020,5 hPa 0,0 l/m 7,9 km/h (2 Bft) W 270 11,5 C 14,4 C
08.08.2012 04:11 14,4 C 83 % 1020,6 hPa 0,0 l/m 8,3 km/h (2 Bft) W-NW 292 11,5 C 14,4 C
08.08.2012 04:16 14,4 C 83 % 1020,6 hPa 0,0 l/m 10,8 km/h (2 Bft) W 270 11,5 C 14,4 C
08.08.2012 04:21 14,4 C 83 % 1020,5 hPa 0,0 l/m 18,0 km/h (3 Bft) W-NW 292 11,5 C 14,4 C
08.08.2012 04:26 14,4 C 83 % 1020,5 hPa 0,0 l/m 17,3 km/h (3 Bft) W-SW 247 11,5 C 14,4 C
08.08.2012 04:31 14,4 C 83 % 1020,4 hPa 0,0 l/m 5,4 km/h (1 Bft) W 270 11,5 C 14,4 C
08.08.2012 04:36 14,4 C 83 % 1020,5 hPa 0,0 l/m 11,2 km/h (2 Bft) W 270 11,5 C 14,4 C
08.08.2012 04:41 14,4 C 83 % 1020,5 hPa 0,0 l/m 9,4 km/h (2 Bft) W-SW 247 11,5 C 14,4 C
08.08.2012 04:46 14,5 C 83 % 1020,5 hPa 0,0 l/m 16,9 km/h (3 Bft) SW 225 11,6 C 14,5 C
08.08.2012 04:51 14,5 C 83 % 1020,5 hPa 0,0 l/m 7,2 km/h (2 Bft) W-SW 247 11,6 C 14,5 C
08.08.2012 04:56 14,5 C 83 % 1020,5 hPa 0,0 l/m 9,4 km/h (2 Bft) SW 225 11,6 C 14,5 C
08.08.2012 05:01 14,6 C 83 % 1020,6 hPa 0,0 l/m 8,6 km/h (2 Bft) W-SW 247 11,7 C 14,6 C
08.08.2012 05:06 14,6 C 83 % 1020,7 hPa 0,0 l/m 8,6 km/h (2 Bft) W-NW 292 11,7 C 14,6 C
08.08.2012 05:11 14,6 C 83 % 1020,6 hPa 0,0 l/m 4,3 km/h (1 Bft) W 270 11,7 C 14,6 C
08.08.2012 05:16 14,6 C 83 % 1020,7 hPa 0,0 l/m 8,3 km/h (2 Bft) SW 225 11,7 C 14,6 C
08.08.2012 05:21 14,7 C 83 % 1020,7 hPa 0,0 l/m 4,7 km/h (1 Bft) W-SW 247 11,8 C 14,7 C
08.08.2012 05:26 14,7 C 83 % 1020,7 hPa 0,0 l/m 0,0 km/h (0 Bft) W 270 11,8 C 14,7 C
08.08.2012 05:31 14,7 C 83 % 1020,7 hPa 0,0 l/m 10,4 km/h (2 Bft) W 270 11,8 C 14,7 C
08.08.2012 05:36 14,7 C 83 % 1020,8 hPa 0,0 l/m 5,4 km/h (1 Bft) W-SW 247 11,8 C 14,7 C
08.08.2012 05:41 14,7 C 83 % 1020,8 hPa 0,0 l/m 12,6 km/h (3 Bft) W 270 11,8 C 14,7 C
08.08.2012 05:46 14,7 C 83 % 1020,9 hPa 0,0 l/m 6,5 km/h (2 Bft) W-NW 292 11,8 C 14,7 C
08.08.2012 05:51 14,8 C 83 % 1021,0 hPa 0,0 l/m 10,8 km/h (2 Bft) W-SW 247 11,9 C 14,8 C
08.08.2012 05:56 14,8 C 83 % 1020,9 hPa 0,0 l/m 6,1 km/h (2 Bft) SW 225 11,9 C 14,8 C
08.08.2012 06:01 14,8 C 83 % 1021,1 hPa 0,0 l/m 8,3 km/h (2 Bft) W-SW 247 11,9 C 14,8 C
08.08.2012 06:06 14,8 C 83 % 1021,0 hPa 0,0 l/m 5,8 km/h (2 Bft) W 270 11,9 C 14,8 C
08.08.2012 06:11 14,9 C 82 % 1021,0 hPa 0,0 l/m 6,1 km/h (2 Bft) W-SW 247 11,9 C 14,9 C
08.08.2012 06:16 14,9 C 82 % 1021,1 hPa 0,0 l/m 7,9 km/h (2 Bft) W-SW 247 11,9 C 14,9 C
08.08.2012 06:21 14,8 C 82 % 1021,1 hPa 0,0 l/m 3,6 km/h (1 Bft) W-NW 292 11,8 C 14,8 C
08.08.2012 06:26 14,8 C 82 % 1021,0 hPa 0,0 l/m 9,7 km/h (2 Bft) W 270 11,8 C 14,8 C
08.08.2012 06:31 14,9 C 82 % 1021,0 hPa 0,0 l/m 10,4 km/h (2 Bft) W 270 11,9 C 14,9 C
08.08.2012 06:36 14,9 C 82 % 1021,0 hPa 0,0 l/m 7,9 km/h (2 Bft) W 270 11,9 C 14,9 C
08.08.2012 06:41 14,9 C 82 % 1021,0 hPa 0,0 l/m 5,8 km/h (2 Bft) W-SW 247 11,9 C 14,9 C
08.08.2012 06:46 14,9 C 82 % 1021,0 hPa 0,0 l/m 5,8 km/h (2 Bft) W-NW 292 11,9 C 14,9 C
08.08.2012 06:51 14,9 C 82 % 1021,1 hPa 0,0 l/m 14,8 km/h (3 Bft) SW 225 11,9 C 14,9 C
08.08.2012 06:56 14,9 C 82 % 1021,1 hPa 0,0 l/m 9,4 km/h (2 Bft) W 270 11,9 C 14,9 C
08.08.2012 07:01 14,9 C 82 % 1021,1 hPa 0,0 l/m 7,6 km/h (2 Bft) W-SW 247 11,9 C 14,9 C
08.08.2012 07:06 14,9 C 82 % 1021,2 hPa 0,0 l/m 15,1 km/h (3 Bft) W 270 11,9 C 14,9 C
08.08.2012 07:11 14,9 C 82 % 1021,3 hPa 0,0 l/m 9,4 km/h (2 Bft) W-NW 292 11,9 C 14,9 C
08.08.2012 07:16 14,9 C 82 % 1021,3 hPa 0,0 l/m 14,4 km/h (3 Bft) W-SW 247 11,9 C 14,9 C
08.08.2012 07:21 14,9 C 82 % 1021,4 hPa 0,0 l/m 12,2 km/h (2 Bft) W-SW 247 11,9 C 14,9 C
08.08.2012 07:26 14,9 C 82 % 1021,4 hPa 0,0 l/m 2,5 km/h (1 Bft) W 270 11,9 C 14,9 C
08.08.2012 07:31 14,9 C 82 % 1021,5 hPa 0,0 l/m 8,3 km/h (2 Bft) W-NW 292 11,9 C 14,9 C
08.08.2012 07:36 14,9 C 82 % 1021,5 hPa 0,0 l/m 14,4 km/h (3 Bft) W-NW 292 11,9 C 14,9 C
08.08.2012 07:41 14,9 C 82 % 1021,5 hPa 0,0 l/m 4,0 km/h (1 Bft) SW 225 11,9 C 14,9 C
08.08.2012 07:46 14,9 C 82 % 1021,6 hPa 0,0 l/m 2,9 km/h (1 Bft) W-SW 247 11,9 C 14,9 C
08.08.2012 07:51 14,9 C 81 % 1021,7 hPa 0,0 l/m 7,6 km/h (2 Bft) W-SW 247 11,7 C 14,9 C
08.08.2012 07:56 15,0 C 81 % 1021,7 hPa 0,0 l/m 12,2 km/h (2 Bft) W-SW 247 11,8 C 15,0 C
08.08.2012 08:01 15,2 C 82 % 1021,8 hPa 0,0 l/m 1,8 km/h (1 Bft) W 270 12,1 C 15,2 C
08.08.2012 08:06 15,3 C 81 % 1021,8 hPa 0,0 l/m 3,2 km/h (1 Bft) W 270 12,1 C 15,3 C
08.08.2012 08:11 15,3 C 81 % 1021,8 hPa 0,0 l/m 20,9 km/h (4 Bft) W-SW 247 12,1 C 15,3 C
08.08.2012 08:16 15,4 C 81 % 1021,9 hPa 0,0 l/m 8,6 km/h (2 Bft) W-SW 247 12,2 C 15,4 C
08.08.2012 08:21 15,6 C 80 % 1022,0 hPa 0,0 l/m 7,6 km/h (2 Bft) W-SW 247 12,2 C 15,6 C
08.08.2012 08:26 15,6 C 80 % 1022,1 hPa 0,0 l/m 12,6 km/h (3 Bft) W 270 12,2 C 15,6 C
08.08.2012 08:31 15,8 C 80 % 1022,1 hPa 0,0 l/m 8,3 km/h (2 Bft) W-NW 292 12,4 C 15,8 C
08.08.2012 08:36 15,8 C 80 % 1022,3 hPa 0,0 l/m 10,4 km/h (2 Bft) W 270 12,4 C 15,8 C
08.08.2012 08:41 15,9 C 80 % 1022,2 hPa 0,0 l/m 9,7 km/h (2 Bft) W-SW 247 12,5 C 15,9 C
08.08.2012 08:46 15,9 C 79 % 1022,3 hPa 0,0 l/m 13,7 km/h (3 Bft) W-NW 292 12,3 C 15,9 C
08.08.2012 08:51 15,9 C 79 % 1022,2 hPa 0,0 l/m 24,5 km/h (4 Bft) W 270 12,3 C 15,9 C
08.08.2012 08:56 15,9 C 79 % 1022,3 hPa 0,0 l/m 5,0 km/h (1 Bft) W 270 12,3 C 15,9 C
08.08.2012 09:01 15,9 C 79 % 1022,2 hPa 0,0 l/m 8,6 km/h (2 Bft) W 270 12,3 C 15,9 C
08.08.2012 09:06 16,1 C 79 % 1022,2 hPa 0,0 l/m 19,4 km/h (3 Bft) W-SW 247 12,5 C 16,1 C
08.08.2012 09:11 16,1 C 79 % 1022,3 hPa 0,0 l/m 10,1 km/h (2 Bft) W-SW 247 12,5 C 16,1 C
08.08.2012 09:16 16,2 C 79 % 1022,2 hPa 0,0 l/m 2,2 km/h (1 Bft) W 270 12,6 C 16,2 C
08.08.2012 09:21 16,2 C 78 % 1022,2 hPa 0,0 l/m 16,6 km/h (3 Bft) W-SW 247 12,4 C 16,2 C
08.08.2012 09:26 16,2 C 79 % 1022,3 hPa 0,0 l/m 16,2 km/h (3 Bft) W 270 12,6 C 16,2 C
08.08.2012 09:31 16,2 C 78 % 1022,3 hPa 0,0 l/m 11,9 km/h (2 Bft) W-SW 247 12,4 C 16,2 C
08.08.2012 09:36 16,3 C 78 % 1022,3 hPa 0,0 l/m 13,3 km/h (3 Bft) W-SW 247 12,5 C 16,3 C
08.08.2012 09:41 16,3 C 78 % 1022,5 hPa 0,0 l/m 7,6 km/h (2 Bft) W-SW 247 12,5 C 16,3 C
08.08.2012 09:46 16,4 C 78 % 1022,5 hPa 0,0 l/m 17,6 km/h (3 Bft) W 270 12,6 C 16,4 C
08.08.2012 09:51 16,5 C 78 % 1022,5 hPa 0,0 l/m 8,6 km/h (2 Bft) W-SW 247 12,6 C 16,5 C
08.08.2012 09:56 16,5 C 77 % 1022,6 hPa 0,0 l/m 15,5 km/h (3 Bft) W 270 12,5 C 16,5 C
08.08.2012 10:01 16,5 C 77 % 1022,6 hPa 0,0 l/m 8,6 km/h (2 Bft) NW 315 12,5 C 16,5 C
08.08.2012 10:06 16,6 C 77 % 1022,6 hPa 0,0 l/m 18,0 km/h (3 Bft) W 270 12,5 C 16,6 C
08.08.2012 10:11 16,6 C 77 % 1022,6 hPa 0,0 l/m 8,6 km/h (2 Bft) W 270 12,5 C 16,6 C
08.08.2012 10:16 16,8 C 77 % 1022,6 hPa 0,0 l/m 18,0 km/h (3 Bft) W 270 12,7 C 16,8 C
08.08.2012 10:21 16,9 C 77 % 1022,6 hPa 0,0 l/m 7,9 km/h (2 Bft) W-NW 292 12,8 C 16,9 C
08.08.2012 10:26 16,9 C 77 % 1022,7 hPa 0,0 l/m 5,8 km/h (2 Bft) W 270 12,8 C 16,9 C
08.08.2012 10:31 17,1 C 76 % 1022,7 hPa 0,0 l/m 3,6 km/h (1 Bft) NW 315 12,8 C 17,1 C
08.08.2012 10:36 17,2 C 75 % 1022,6 hPa 0,0 l/m 3,2 km/h (1 Bft) W 270 12,7 C 17,2 C
08.08.2012 10:41 17,3 C 75 % 1022,7 hPa 0,0 l/m 9,7 km/h (2 Bft) NW 315 12,8 C 17,3 C
08.08.2012 10:46 17,3 C 75 % 1022,8 hPa 0,0 l/m 4,7 km/h (1 Bft) W-SW 247 12,8 C 17,3 C
08.08.2012 10:51 17,5 C 75 % 1022,7 hPa 0,0 l/m 9,0 km/h (2 Bft) W 270 13,0 C 17,5 C
08.08.2012 10:56 17,9 C 75 % 1022,7 hPa 0,0 l/m 5,8 km/h (2 Bft) SW 225 13,4 C 17,9 C
08.08.2012 11:01 18,4 C 74 % 1022,7 hPa 0,0 l/m 9,7 km/h (2 Bft) S-SW 202 13,7 C 18,4 C
08.08.2012 11:06 18,8 C 71 % 1022,7 hPa 0,0 l/m 7,9 km/h (2 Bft) W-NW 292 13,4 C 18,8 C
08.08.2012 11:11 18,9 C 70 % 1022,8 hPa 0,0 l/m 12,2 km/h (2 Bft) W 270 13,3 C 18,9 C
08.08.2012 11:16 18,9 C 70 % 1022,8 hPa 0,0 l/m 14,0 km/h (3 Bft) SW 225 13,3 C 18,9 C
08.08.2012 11:21 18,9 C 69 % 1023,0 hPa 0,0 l/m 14,4 km/h (3 Bft) W 270 13,1 C 18,9 C
08.08.2012 11:26 19,0 C 70 % 1022,9 hPa 0,0 l/m 10,8 km/h (2 Bft) NW 315 13,4 C 19,0 C
08.08.2012 11:31 19,5 C 68 % 1022,9 hPa 0,0 l/m 10,1 km/h (2 Bft) SW 225 13,4 C 19,5 C
08.08.2012 11:36 19,9 C 68 % 1022,8 hPa 0,0 l/m 16,2 km/h (3 Bft) SW 225 13,8 C 19,9 C
08.08.2012 11:41 19,9 C 67 % 1023,0 hPa 0,0 l/m 7,9 km/h (2 Bft) SW 225 13,6 C 19,9 C
08.08.2012 11:46 19,8 C 67 % 1023,0 hPa 0,0 l/m 18,4 km/h (3 Bft) W 270 13,5 C 19,8 C
08.08.2012 11:51 20,1 C 67 % 1022,9 hPa 0,0 l/m 9,4 km/h (2 Bft) W 270 13,8 C 20,1 C
08.08.2012 11:56 20,4 C 66 % 1023,0 hPa 0,0 l/m 10,4 km/h (2 Bft) W 270 13,8 C 20,4 C
08.08.2012 12:01 20,3 C 65 % 1023,1 hPa 0,0 l/m 14,4 km/h (3 Bft) W 270 13,5 C 20,3 C
08.08.2012 12:06 20,2 C 64 % 1023,1 hPa 0,0 l/m 6,8 km/h (2 Bft) W-NW 292 13,2 C 20,2 C
08.08.2012 12:11 20,0 C 64 % 1023,2 hPa 0,0 l/m 18,7 km/h (3 Bft) W 270 13,0 C 20,0 C
08.08.2012 12:16 19,9 C 65 % 1023,0 hPa 0,0 l/m 4,0 km/h (1 Bft) W 270 13,1 C 19,9 C
08.08.2012 12:21 20,2 C 64 % 1023,0 hPa 0,0 l/m 14,4 km/h (3 Bft) W-NW 292 13,2 C 20,2 C
08.08.2012 12:26 20,3 C 64 % 1022,9 hPa 0,0 l/m 18,4 km/h (3 Bft) W-SW 247 13,3 C 20,3 C
08.08.2012 12:31 20,4 C 63 % 1023,0 hPa 0,0 l/m 16,6 km/h (3 Bft) W-NW 292 13,1 C 20,4 C
08.08.2012 12:36 20,6 C 63 % 1023,0 hPa 0,0 l/m 11,2 km/h (2 Bft) W 270 13,3 C 20,6 C
08.08.2012 12:41 20,7 C 63 % 1022,9 hPa 0,0 l/m 20,9 km/h (4 Bft) W-SW 247 13,4 C 20,7 C
08.08.2012 12:46 20,8 C 61 % 1022,8 hPa 0,0 l/m 26,3 km/h (4 Bft) W-SW 247 13,0 C 20,8 C
08.08.2012 12:51 20,8 C 60 % 1022,9 hPa 0,0 l/m 11,2 km/h (2 Bft) W-NW 292 12,7 C 20,8 C
08.08.2012 12:56 20,8 C 60 % 1022,9 hPa 0,0 l/m 25,6 km/h (4 Bft) W 270 12,7 C 20,8 C
08.08.2012 13:01 21,1 C 58 % 1022,9 hPa 0,0 l/m 9,0 km/h (2 Bft) W-SW 247 12,5 C 21,1 C
08.08.2012 13:06 21,4 C 59 % 1022,8 hPa 0,0 l/m 17,3 km/h (3 Bft) W-SW 247 13,0 C 21,4 C
08.08.2012 13:11 21,8 C 58 % 1022,6 hPa 0,0 l/m 14,4 km/h (3 Bft) W-NW 292 13,2 C 21,8 C
08.08.2012 13:16 21,8 C 57 % 1022,7 hPa 0,0 l/m 9,4 km/h (2 Bft) NW 315 12,9 C 21,8 C
08.08.2012 13:21 21,4 C 57 % 1022,6 hPa 0,0 l/m 6,1 km/h (2 Bft) W 270 12,5 C 21,4 C
08.08.2012 13:26 21,1 C 58 % 1022,6 hPa 0,0 l/m 13,7 km/h (3 Bft) NW 315 12,5 C 21,1 C
08.08.2012 13:31 21,3 C 58 % 1022,5 hPa 0,0 l/m 7,9 km/h (2 Bft) W 270 12,7 C 21,3 C
08.08.2012 13:36 21,5 C 57 % 1022,4 hPa 0,0 l/m 11,5 km/h (2 Bft) W 270 12,6 C 21,5 C
08.08.2012 13:41 21,4 C 57 % 1022,5 hPa 0,0 l/m 10,1 km/h (2 Bft) W-SW 247 12,5 C 21,4 C
08.08.2012 13:46 21,4 C 56 % 1022,5 hPa 0,0 l/m 19,1 km/h (3 Bft) W-SW 247 12,3 C 21,4 C
08.08.2012 13:51 21,8 C 56 % 1022,5 hPa 0,0 l/m 11,9 km/h (2 Bft) N-NW 337 12,6 C 21,8 C
08.08.2012 13:56 22,3 C 54 % 1022,5 hPa 0,0 l/m 11,2 km/h (2 Bft) NW 315 12,5 C 22,3 C
08.08.2012 14:01 22,2 C 54 % 1022,4 hPa 0,0 l/m 28,1 km/h (4 Bft) W 270 12,4 C 22,2 C
08.08.2012 14:06 22,3 C 54 % 1022,2 hPa 0,0 l/m 14,8 km/h (3 Bft) W-SW 247 12,5 C 22,3 C
08.08.2012 14:11 22,3 C 52 % 1022,3 hPa 0,0 l/m 7,2 km/h (2 Bft) SW 225 12,0 C 22,3 C
08.08.2012 14:16 22,2 C 52 % 1022,2 hPa 0,0 l/m 11,2 km/h (2 Bft) W-SW 247 11,9 C 22,2 C
08.08.2012 14:21 22,1 C 52 % 1022,2 hPa 0,0 l/m 5,8 km/h (2 Bft) W 270 11,8 C 22,1 C
08.08.2012 14:26 22,4 C 52 % 1022,1 hPa 0,0 l/m 17,3 km/h (3 Bft) SW 225 12,1 C 22,4 C
08.08.2012 14:31 22,4 C 51 % 1022,0 hPa 0,0 l/m 8,3 km/h (2 Bft) SW 225 11,8 C 22,4 C
08.08.2012 14:36 22,2 C 52 % 1021,8 hPa 0,0 l/m 12,2 km/h (2 Bft) SW 225 11,9 C 22,2 C
08.08.2012 14:41 22,3 C 52 % 1021,9 hPa 0,0 l/m 9,0 km/h (2 Bft) W 270 12,0 C 22,3 C
08.08.2012 14:46 22,4 C 50 % 1021,9 hPa 0,0 l/m 13,0 km/h (3 Bft) NW 315 11,5 C 22,4 C
08.08.2012 14:51 22,2 C 49 % 1022,1 hPa 0,0 l/m 15,8 km/h (3 Bft) SW 225 11,0 C 22,2 C
08.08.2012 14:56 22,1 C 50 % 1022,0 hPa 0,0 l/m 7,2 km/h (2 Bft) W 270 11,2 C 22,1 C
08.08.2012 15:01 22,2 C 51 % 1022,0 hPa 0,0 l/m 8,6 km/h (2 Bft) W 270 11,6 C 22,2 C
08.08.2012 15:06 22,7 C 50 % 1021,9 hPa 0,0 l/m 12,2 km/h (2 Bft) NW 315 11,7 C 22,7 C
08.08.2012 15:11 22,7 C 51 % 1022,0 hPa 0,0 l/m 4,0 km/h (1 Bft) NW 315 12,0 C 22,7 C
08.08.2012 15:16 22,8 C 50 % 1022,1 hPa 0,0 l/m 12,6 km/h (3 Bft) NW 315 11,8 C 22,8 C
08.08.2012 15:21 22,9 C 50 % 1021,9 hPa 0,0 l/m 10,8 km/h (2 Bft) W-NW 292 11,9 C 22,9 C
08.08.2012 15:26 23,1 C 50 % 1021,9 hPa 0,0 l/m 3,6 km/h (1 Bft) W-NW 292 12,1 C 23,1 C
08.08.2012 15:31 23,6 C 49 % 1021,7 hPa 0,0 l/m 12,6 km/h (3 Bft) SW 225 12,2 C 23,6 C
08.08.2012 15:36 23,8 C 47 % 1021,6 hPa 0,0 l/m 13,7 km/h (3 Bft) W-NW 292 11,8 C 23,8 C
08.08.2012 15:41 24,1 C 46 % 1021,7 hPa 0,0 l/m 8,6 km/h (2 Bft) W-SW 247 11,7 C 24,1 C
08.08.2012 15:46 24,3 C 46 % 1021,6 hPa 0,0 l/m 7,2 km/h (2 Bft) W-NW 292 11,9 C 24,3 C
08.08.2012 15:51 24,1 C 45 % 1021,6 hPa 0,0 l/m 10,1 km/h (2 Bft) NW 315 11,4 C 24,1 C
08.08.2012 15:56 24,1 C 46 % 1021,5 hPa 0,0 l/m 19,8 km/h (3 Bft) W-SW 247 11,7 C 24,1 C
08.08.2012 16:01 24,1 C 45 % 1021,5 hPa 0,0 l/m 18,0 km/h (3 Bft) W-SW 247 11,4 C 24,1 C
08.08.2012 16:06 24,1 C 45 % 1021,4 hPa 0,0 l/m 6,5 km/h (2 Bft) W-NW 292 11,4 C 24,1 C
08.08.2012 16:11 24,2 C 46 % 1021,2 hPa 0,0 l/m 18,7 km/h (3 Bft) NW 315 11,8 C 24,2 C
08.08.2012 16:16 24,3 C 46 % 1021,6 hPa 0,0 l/m 13,3 km/h (3 Bft) W-SW 247 11,9 C 24,3 C
08.08.2012 16:21 24,1 C 45 % 1021,5 hPa 0,0 l/m 20,2 km/h (4 Bft) W-NW 292 11,4 C 24,1 C
08.08.2012 16:26 24,0 C 45 % 1021,5 hPa 0,0 l/m 15,8 km/h (3 Bft) NW 315 11,3 C 24,0 C
08.08.2012 16:31 24,1 C 45 % 1021,4 hPa 0,0 l/m 12,6 km/h (3 Bft) W 270 11,4 C 24,1 C
08.08.2012 16:36 23,9 C 44 % 1021,4 hPa 0,0 l/m 6,1 km/h (2 Bft) W-SW 247 10,9 C 23,9 C
08.08.2012 16:41 23,9 C 46 % 1021,4 hPa 0,0 l/m 13,7 km/h (3 Bft) N-NW 337 11,6 C 23,9 C
08.08.2012 16:46 23,9 C 45 % 1021,5 hPa 0,0 l/m 14,8 km/h (3 Bft) NW 315 11,2 C 23,9 C
08.08.2012 16:51 23,6 C 46 % 1021,4 hPa 0,0 l/m 3,6 km/h (1 Bft) NW 315 11,3 C 23,6 C
08.08.2012 16:56 23,5 C 47 % 1021,4 hPa 0,0 l/m 0,0 km/h (0 Bft) W-NW 292 11,5 C 23,5 C
08.08.2012 17:01 23,2 C 47 % 1021,5 hPa 0,0 l/m 4,7 km/h (1 Bft) NW 315 11,3 C 23,2 C
08.08.2012 17:06 23,0 C 48 % 1021,5 hPa 0,0 l/m 5,0 km/h (1 Bft) W-NW 292 11,4 C 23,0 C
08.08.2012 17:11 22,2 C 51 % 1021,5 hPa 0,0 l/m 20,9 km/h (4 Bft) N 360 11,6 C 22,2 C
08.08.2012 17:16 21,0 C 55 % 1021,5 hPa 0,0 l/m 14,4 km/h (3 Bft) N-NO 22 11,6 C 21,0 C
08.08.2012 17:21 20,3 C 57 % 1021,6 hPa 0,0 l/m 10,8 km/h (2 Bft) N-NW 337 11,5 C 20,3 C
08.08.2012 17:26 19,9 C 59 % 1021,5 hPa 0,0 l/m 14,8 km/h (3 Bft) N-NO 22 11,6 C 19,9 C
08.08.2012 17:31 19,8 C 60 % 1021,5 hPa 0,0 l/m 7,9 km/h (2 Bft) N-NW 337 11,8 C 19,8 C
08.08.2012 17:36 19,6 C 61 % 1021,5 hPa 0,0 l/m 13,0 km/h (3 Bft) N-NO 22 11,9 C 19,6 C
08.08.2012 17:41 19,7 C 61 % 1021,6 hPa 0,0 l/m 8,3 km/h (2 Bft) NO 45 12,0 C 19,7 C
08.08.2012 17:46 19,6 C 62 % 1021,5 hPa 0,0 l/m 4,0 km/h (1 Bft) O-NO 67 12,1 C 19,6 C
08.08.2012 17:51 19,4 C 63 % 1021,4 hPa 0,0 l/m 11,2 km/h (2 Bft) N 360 12,2 C 19,4 C
08.08.2012 17:56 19,2 C 63 % 1021,4 hPa 0,0 l/m 4,0 km/h (1 Bft) N-NO 22 12,0 C 19,2 C
08.08.2012 18:01 18,9 C 64 % 1021,6 hPa 0,0 l/m 7,6 km/h (2 Bft) N-NO 22 11,9 C 18,9 C
08.08.2012 18:06 18,7 C 65 % 1021,6 hPa 0,0 l/m 8,6 km/h (2 Bft) N 360 12,0 C 18,7 C
08.08.2012 18:11 18,5 C 65 % 1021,8 hPa 0,0 l/m 12,6 km/h (3 Bft) N-NO 22 11,8 C 18,5 C
08.08.2012 18:16 18,5 C 65 % 1021,9 hPa 0,0 l/m 16,9 km/h (3 Bft) N 360 11,8 C 18,5 C
08.08.2012 18:21 18,3 C 66 % 1021,9 hPa 0,0 l/m 17,3 km/h (3 Bft) N-NO 22 11,8 C 18,3 C
08.08.2012 18:26 18,1 C 67 % 1022,0 hPa 0,0 l/m 5,8 km/h (2 Bft) N 360 11,9 C 18,1 C
08.08.2012 18:31 17,9 C 68 % 1021,9 hPa 0,0 l/m 2,2 km/h (1 Bft) N-NW 337 11,9 C 17,9 C
08.08.2012 18:36 17,9 C 69 % 1021,9 hPa 0,0 l/m 6,5 km/h (2 Bft) NW 315 12,1 C 17,9 C
08.08.2012 18:41 18,1 C 69 % 1022,1 hPa 0,0 l/m 5,8 km/h (2 Bft) W-NW 292 12,3 C 18,1 C
08.08.2012 18:46 18,1 C 68 % 1022,1 hPa 0,0 l/m 0,0 km/h (0 Bft) W-NW 292 12,1 C 18,1 C
08.08.2012 18:51 18,1 C 69 % 1022,2 hPa 0,0 l/m 8,3 km/h (2 Bft) W-SW 247 12,3 C 18,1 C
08.08.2012 18:56 18,2 C 69 % 1022,2 hPa 0,0 l/m 0,0 km/h (0 Bft) W-NW 292 12,4 C 18,2 C
08.08.2012 19:01 18,3 C 69 % 1022,3 hPa 0,0 l/m 6,1 km/h (2 Bft) W 270 12,5 C 18,3 C
08.08.2012 19:06 18,4 C 70 % 1022,2 hPa 0,0 l/m 12,6 km/h (3 Bft) W-SW 247 12,8 C 18,4 C
08.08.2012 19:11 18,6 C 69 % 1022,2 hPa 0,0 l/m 11,9 km/h (2 Bft) W-SW 247 12,8 C 18,6 C
08.08.2012 19:16 18,9 C 67 % 1021,8 hPa 0,0 l/m 6,1 km/h (2 Bft) W-SW 247 12,6 C 18,9 C
08.08.2012 19:21 19,2 C 67 % 1021,9 hPa 0,0 l/m 5,8 km/h (2 Bft) S-SW 202 12,9 C 19,2 C
08.08.2012 19:26 19,3 C 67 % 1022,0 hPa 0,0 l/m 9,7 km/h (2 Bft) W-SW 247 13,0 C 19,3 C
08.08.2012 19:31 19,3 C 66 % 1021,9 hPa 0,0 l/m 9,7 km/h (2 Bft) W-SW 247 12,8 C 19,3 C
08.08.2012 19:36 18,9 C 67 % 1021,9 hPa 0,0 l/m 8,6 km/h (2 Bft) W-SW 247 12,6 C 18,9 C
08.08.2012 19:41 18,6 C 67 % 1021,9 hPa 0,0 l/m 9,0 km/h (2 Bft) W-SW 247 12,3 C 18,6 C
08.08.2012 19:46 18,4 C 68 % 1021,8 hPa 0,0 l/m 5,4 km/h (1 Bft) SW 225 12,4 C 18,4 C
08.08.2012 19:51 18,3 C 70 % 1021,9 hPa 0,0 l/m 9,7 km/h (2 Bft) W-SW 247 12,7 C 18,3 C
08.08.2012 19:56 18,1 C 71 % 1022,0 hPa 0,0 l/m 7,9 km/h (2 Bft) W-SW 247 12,8 C 18,1 C
08.08.2012 20:01 17,8 C 72 % 1022,1 hPa 0,0 l/m 5,8 km/h (2 Bft) SW 225 12,7 C 17,8 C
08.08.2012 20:06 17,8 C 73 % 1022,1 hPa 0,0 l/m 4,0 km/h (1 Bft) SW 225 12,9 C 17,8 C
08.08.2012 20:11 17,6 C 74 % 1022,2 hPa 0,0 l/m 10,8 km/h (2 Bft) W 270 12,9 C 17,6 C
08.08.2012 20:16 17,5 C 74 % 1022,2 hPa 0,0 l/m 4,0 km/h (1 Bft) SW 225 12,8 C 17,5 C
08.08.2012 20:21 17,4 C 74 % 1022,2 hPa 0,0 l/m 4,0 km/h (1 Bft) W-SW 247 12,7 C 17,4 C
08.08.2012 20:26 17,3 C 74 % 1022,1 hPa 0,0 l/m 4,0 km/h (1 Bft) W-SW 247 12,6 C 17,3 C
08.08.2012 20:31 17,2 C 74 % 1022,1 hPa 0,0 l/m 6,5 km/h (2 Bft) W-SW 247 12,5 C 17,2 C
08.08.2012 20:36 17,1 C 74 % 1022,1 hPa 0,0 l/m 5,0 km/h (1 Bft) W-SW 247 12,4 C 17,1 C
08.08.2012 20:41 17,1 C 74 % 1021,9 hPa 0,0 l/m 3,6 km/h (1 Bft) S-SW 202 12,4 C 17,1 C
08.08.2012 20:46 17,0 C 74 % 1021,9 hPa 0,0 l/m 6,1 km/h (2 Bft) SW 225 12,3 C 17,0 C
08.08.2012 20:51 16,9 C 74 % 1021,9 hPa 0,0 l/m 7,2 km/h (2 Bft) W-SW 247 12,2 C 16,9 C
08.08.2012 20:56 16,9 C 75 % 1022,1 hPa 0,0 l/m 0,0 km/h (0 Bft) SW 225 12,4 C 16,9 C
08.08.2012 21:01 16,9 C 75 % 1022,1 hPa 0,0 l/m 3,2 km/h (1 Bft) SW 225 12,4 C 16,9 C
08.08.2012 21:06 16,9 C 75 % 1022,2 hPa 0,0 l/m 2,2 km/h (1 Bft) SW 225 12,4 C 16,9 C
08.08.2012 21:11 16,9 C 75 % 1022,2 hPa 0,0 l/m 4,7 km/h (1 Bft) SW 225 12,4 C 16,9 C
08.08.2012 21:16 16,9 C 75 % 1022,3 hPa 0,0 l/m 5,4 km/h (1 Bft) W-SW 247 12,4 C 16,9 C
08.08.2012 21:21 16,9 C 76 % 1022,3 hPa 0,0 l/m 5,4 km/h (1 Bft) W 270 12,6 C 16,9 C
08.08.2012 21:26 16,8 C 77 % 1022,4 hPa 0,0 l/m 2,5 km/h (1 Bft) S-SW 202 12,7 C 16,8 C
08.08.2012 21:31 16,8 C 77 % 1022,3 hPa 0,0 l/m 9,0 km/h (2 Bft) W-SW 247 12,7 C 16,8 C
08.08.2012 21:36 16,8 C 77 % 1022,3 hPa 0,0 l/m 6,5 km/h (2 Bft) W-SW 247 12,7 C 16,8 C
08.08.2012 21:41 16,8 C 78 % 1022,3 hPa 0,0 l/m 7,6 km/h (2 Bft) W 270 12,9 C 16,8 C
08.08.2012 21:46 16,8 C 78 % 1022,4 hPa 0,0 l/m 6,1 km/h (2 Bft) W 270 12,9 C 16,8 C
08.08.2012 21:51 16,8 C 79 % 1022,2 hPa 0,0 l/m 0,0 km/h (0 Bft) W 270 13,1 C 16,8 C
08.08.2012 21:56 16,8 C 79 % 1022,3 hPa 0,0 l/m 3,6 km/h (1 Bft) W 270 13,1 C 16,8 C
08.08.2012 22:01 16,8 C 79 % 1022,3 hPa 0,0 l/m 0,0 km/h (0 Bft) W 270 13,1 C 16,8 C
08.08.2012 22:06 16,8 C 79 % 1022,3 hPa 0,0 l/m 9,4 km/h (2 Bft) W 270 13,1 C 16,8 C
08.08.2012 22:11 16,8 C 79 % 1022,3 hPa 0,0 l/m 3,6 km/h (1 Bft) W 270 13,1 C 16,8 C
08.08.2012 22:16 16,7 C 79 % 1022,3 hPa 0,0 l/m 3,6 km/h (1 Bft) W 270 13,0 C 16,7 C
08.08.2012 22:21 16,7 C 80 % 1022,3 hPa 0,0 l/m 2,2 km/h (1 Bft) W 270 13,2 C 16,7 C
08.08.2012 22:26 16,7 C 80 % 1022,3 hPa 0,0 l/m 3,2 km/h (1 Bft) W 270 13,2 C 16,7 C
08.08.2012 22:31 16,7 C 80 % 1022,4 hPa 0,0 l/m 13,7 km/h (3 Bft) W 270 13,2 C 16,7 C
08.08.2012 22:36 16,6 C 80 % 1022,3 hPa 0,0 l/m 0,0 km/h (0 Bft) W-NW 292 13,1 C 16,6 C
08.08.2012 22:41 16,6 C 80 % 1022,4 hPa 0,0 l/m 3,2 km/h (1 Bft) W-SW 247 13,1 C 16,6 C
08.08.2012 22:46 16,6 C 80 % 1022,4 hPa 0,0 l/m 4,0 km/h (1 Bft) W 270 13,1 C 16,6 C
08.08.2012 22:51 16,5 C 81 % 1022,4 hPa 0,0 l/m 3,6 km/h (1 Bft) W-NW 292 13,2 C 16,5 C
08.08.2012 22:56 16,5 C 81 % 1022,2 hPa 0,0 l/m 3,2 km/h (1 Bft) W-NW 292 13,2 C 16,5 C
08.08.2012 23:01 16,4 C 81 % 1022,6 hPa 0,0 l/m 3,2 km/h (1 Bft) W 270 13,1 C 16,4 C
08.08.2012 23:06 16,4 C 81 % 1022,7 hPa 0,0 l/m 7,6 km/h (2 Bft) W-NW 292 13,1 C 16,4 C
08.08.2012 23:11 16,3 C 81 % 1022,7 hPa 0,0 l/m 2,2 km/h (1 Bft) W 270 13,0 C 16,3 C
08.08.2012 23:16 16,1 C 81 % 1022,8 hPa 0,0 l/m 3,6 km/h (1 Bft) W 270 12,8 C 16,1 C
08.08.2012 23:21 16,1 C 81 % 1022,9 hPa 0,0 l/m 5,0 km/h (1 Bft) W-NW 292 12,8 C 16,1 C
08.08.2012 23:26 15,9 C 81 % 1022,7 hPa 0,0 l/m 4,0 km/h (1 Bft) W 270 12,6 C 15,9 C
08.08.2012 23:31 15,9 C 81 % 1022,7 hPa 0,0 l/m 3,2 km/h (1 Bft) W 270 12,6 C 15,9 C
08.08.2012 23:36 15,8 C 81 % 1022,8 hPa 0,0 l/m 10,4 km/h (2 Bft) W 270 12,5 C 15,8 C
08.08.2012 23:41 15,8 C 81 % 1023,0 hPa 0,0 l/m 3,2 km/h (1 Bft) W 270 12,5 C 15,8 C
08.08.2012 23:46 15,6 C 81 % 1022,9 hPa 0,0 l/m 2,9 km/h (1 Bft) W-NW 292 12,3 C 15,6 C
08.08.2012 23:51 15,6 C 81 % 1022,9 hPa 0,0 l/m 1,1 km/h (1 Bft) W 270 12,3 C 15,6 C
08.08.2012 23:56 15,5 C 81 % 1022,9 hPa 0,0 l/m 3,2 km/h (1 Bft) W 270 12,3 C 15,5 C
_ Min-Zeit 03:26 16:36 00:01 - 05:26 - - 16:36 03:26
Minimum _ 14,2 C 44 % 1020,0 hPa - 0,0 km/h (0 Bft) - - 10,9 C 14,2 C
_ Max-Zeit 15:46 02:06 12:11 00:01 14:01 - - 11:56 15:46
Maximum _ 24,3 C 83 % 1023,2 hPa 0,0 l/m 28,1 km/h
W (4 Bft)
- - 13,8 C 24,3 C
Durchschnitt _ 17,6 C 72 % 1021,7 hPa #0,0 l/m 9,5 km/h (2 Bft) W - 12,2 C 17,6 C
(c) by David Heller